Regional Weather Roundup
Issued by NWS

Home | Current Version | Previous Version | Text Only | Print | Product List | Glossary Off
Versions: 1 2 3 4 5 6 7 8 9 10 11 12 13 14 15 16 17 18 19 20 21 22 23 24 25 26 27 28 29 30 31 32 33 34 35 36 37 38 39 40 41 42 43 44 45 46 47 48 49 50

000
ASUS45 KCYS 011510
RWRWY

WYOMING REGIONAL WEATHER ROUNDUP
NATIONAL WEATHER SERVICE CHEYENNE WY
900 AM MDT WED OCT 01 2014

NOTE:  "FAIR" INDICATES FEW OR NO CLOUDS BELOW 12,000 FEET
WITH NO SIGNIFICANT WEATHER AND/OR OBSTRUCTIONS TO VISIBILITY.

WYZ001-011600-
YELLOWSTONE NATIONAL PARK

CITY           SKY/WX    TMP DP  RH WIND       PRES   REMARKS
LK YELLOWSTONE   N/A     31  28  89 CALM      30.05R
W YELLOWSTONE  NOT AVBL

$$
WYZ002>013-054>058-071-098>099-011600-
NORTHERN WYOMING

CITY           SKY/WX    TMP DP  RH WIND       PRES   REMARKS
JACKSON        NOT AVBL
CODY           CLOUDY    43  37  81 N10       29.97R
GREYBULL       CLOUDY    50  35  56 N18G28    29.93R
WORLAND        CLOUDY    48  42  80 NW6       29.94R
SHERIDAN       LGT RAIN  47  41  80 NW14      29.95R
BUFFALO        LGT RAIN  43  39  86 N23G31    29.94R
GILLETTE       CLOUDY    47  41  80 NW17G25   29.91R
HULETT         CLOUDY    46  41  81 W7        29.91
NEWCASTLE      CLOUDY    48  43  81 NW10      29.89

$$
WYZ014>020-022>026-101>103-011600-
CENTRAL WYOMING

CITY           SKY/WX    TMP DP  RH WIND       PRES   REMARKS
BIG PINEY      CLOUDY    36  29  75 N3        30.00S
PINEDALE       MOSUNNY   36  32  87 NW7       30.00R WCI  30
DUBOIS         CLOUDY    36  32  87 NW12      29.96R WCI  27
LANDER         CLOUDY    42  37  82 CALM      29.95R
RIVERTON       CLOUDY    44  36  73 N8        29.96R
CASPER         LGT RAIN  43  40  89 NE12      29.94S
DOUGLAS        LGT RAIN  46  44  93 N5        29.93S

$$
WYZ021-027>030-104>119-011600-
SOUTHERN WYOMING

CITY           SKY/WX    TMP DP  RH WIND       PRES   REMARKS
EVANSTON       MOSUNNY   37  29  72 W9        30.05R WCI  30
FORT BRIDGER     N/A     37  35  90 W9        30.06R WCI  31
ROCK SPRINGS   CLOUDY    37  33  85 W7        30.01R WCI  32
DIXON          PTSUNNY   42  40  92 E3        30.02S
RAWLINS        PTSUNNY   39  33  79 SW13      29.99R WCI  31
SARATOGA       CLOUDY    39  36  87 W5        30.00S
LARAMIE        MOSUNNY   45  32  60 SW9       29.96S
CHEYENNE       MOSUNNY   53  34  48 NW7       29.93R
TORRINGTON     MOSUNNY   48  46  93 CALM      29.89R
PINE BLUFFS    CLOUDY    48  41  76 CALM      29.92R

$$



USA.gov is the U.S. government's official web portal to all federal, state and local government web resources and services.